This is the latest recevied weather packets stored in our database for station/object N4ZIQ. If no packets are shown the sender has not sent any weather packets the latest 10 day(s).
| Time | Temp. | Humidity | Pressure | Rain* | Wind** | Luminosity | Snow |
|---|---|---|---|---|---|---|---|
| 1777497359 | 31.11° C | 49% | 1012.1 hPa | 0 mm | - | 452 W/m² | - |
| 1777497045 | 31.11° C | 50% | 1012.2 hPa | 0 mm | - | 462 W/m² | - |
| 1777496745 | 31.11° C | 50% | 1012.3 hPa | 0 mm | - | 485 W/m² | - |
| 1777496454 | 31.11° C | 50% | 1012.4 hPa | 0 mm | - | 496 W/m² | - |
| 1777496146 | 31.11° C | 50% | 1012.6 hPa | 0 mm | - | 519 W/m² | - |
| 1777495845 | 30.56° C | 51% | 1012.6 hPa | 0 mm | - | 462 W/m² | - |
| 1777495553 | 30.56° C | 51% | 1012.6 hPa | 0 mm | - | 541 W/m² | - |
| 1777495244 | 30.56° C | 51% | 1012.7 hPa | 0 mm | - | 552 W/m² | - |
| 1777494945 | 30.56° C | 49% | 1012.7 hPa | 0 mm | - | 564 W/m² | - |
| 1777494653 | 30.56° C | 50% | 1012.8 hPa | 0 mm | - | 582 W/m² | - |
| 1777494345 | 31.11° C | 50% | 1012.9 hPa | 0 mm | - | 599 W/m² | - |
| 1777494044 | 31.11° C | 51% | 1013 hPa | 0 mm | - | 617 W/m² | - |
| 1777493753 | 30.56° C | 52% | 1013.2 hPa | 0 mm | - | 635 W/m² | - |
| 1777493445 | 30° C | 54% | 1013.2 hPa | 0 mm | - | 640 W/m² | - |
| 1777493145 | 30.56° C | 53% | 1013.3 hPa | 0 mm | - | 652 W/m² | - |
| 1777492856 | 30.56° C | 53% | 1013.6 hPa | 0 mm | - | 659 W/m² | - |
| 1777492545 | 30° C | 53% | 1013.6 hPa | 0 mm | - | 83 W/m² | - |
| 1777492245 | 30.56° C | 51% | 1013.7 hPa | 0 mm | - | 70 W/m² | - |
| 1777491953 | 30.56° C | 52% | 1013.7 hPa | 0 mm | - | 142 W/m² | - |
| 1777491645 | 30.56° C | 50% | 1014 hPa | 0 mm | - | 425 W/m² | - |
| 1777491342 | 30.56° C | 51% | 1014.1 hPa | 0 mm | - | 417 W/m² | - |
| 1777491049 | 30.56° C | 49% | 1014.2 hPa | 0 mm | - | 134 W/m² | - |
| 1777490745 | 30.56° C | 53% | 1014.3 hPa | 0 mm | - | 98 W/m² | - |
| 1777490444 | 30.56° C | 54% | 1014.4 hPa | 0 mm | - | 105 W/m² | - |
| 1777490166 | 30° C | 53% | 1014.5 hPa | 0 mm | - | 142 W/m² | - |
* Rain latest hour (hover to see other rain measurements)
** Current wind speed in m/s (hover to see current wind gust speed)